Voltar ao catálogo

CZ-6A DEB

AtivoSSO
NORAD 54321·DEBRIS·🇨🇳 China

Lançado Nov 11, 2022 de Taiyuan Satellite Launch Center

Loading…

Próximas Passagens (próximas 24 horas)

TLE

AtualizadoSource: Space-Track

Época: Sep 14, 2026, 12:51 UTC

1 54321U 22151BQ  26257.53582891  .00001082  00000-0  31700-3 0  9994
2 54321  98.5901 296.3662 0121460  85.0466 276.4576 14.41743885201179

Acompanhe CZ-6A DEB em tempo real com AllMySat

Download on the App Store